Location: Andrest
(43.3200°N, 0.0641°E)
Time: 10:11:31
(UTC+00:00)

YAOGAN 1 - Pass Details

Date: 01 December 2020
Orbit: 618 x 620 km, 97.9° (Epoch: 23 January)

Event Time Altitude Azimuth Distance (km) Brightness Sun altitude
Rises 18:38:04 0° 165° (SSE) 2,882 5.9 -23.6°
Enters shadow 18:38:56 - 165° (SSE) 2,520 5.6 -23.7°
Exits shadow 18:46:26 34° 348° (NNW) 1,034 3.7 -25.1°
Drops below altitude 10° 18:48:55 10° 347° (NNW) 1,997 5.2 -25.5°
Sets 18:51:07 0° 348° (NNW) 2,908 6.1 -25.9°
